User: anonymous   Login
Location: Unspecified
(0.0000°N, 0.0000°E)
Time: 05:45:33
(UTC+00:00)
Language:

UNK - Orbit

View from above orbital plane
View from above orbital plane
View from above satellite
View from above satellite

Ground track
Ground track

The orbit data is extracted from the following two-line orbital elements,

1 27945U 03042G   18343.88761762 +.00000021 +00000-0 +12698-4 0  9993
2 27945 098.0200 114.5545 0011678 344.5608 015.5238 14.64816089811759
Epoch (UTC): 09 December 2018 21:18:10
Eccentricity: 0.0011678
inclination: 98.0200°
perigee height: 669 km
apogee height: 686 km
right ascension of ascending node: 114.5545°
argument of perigee: 344.5608°
revolutions per day: 14.64816089
mean anomaly at epoch: 15.5238°
orbit number at epoch: 81175

The dashed part of the orbit path shows where the satellite is in the earth's shadow,  

DLR